When you browse on this site, cookies collect data to enhance your experience and personalize the content and advertising you see.
Visit our Privacy Policy to learn more. By continuing to use the site, you agree to this use of cookies and data.
  • în România
  • Lista ţărilor
  • Pe 7 zile
  • Temperatura apei
  • Hartă satelitară
  • Meteo pe hartă
  • Widget-uri
  • user-avatar
    Intrare

    Meteo pe oră la Slepcovka

    Astăzi, 12 Decembrie, Miercuri

    Timp Temperatura Precipitaţii Vânt Presiune Umiditate
    00:00 -5°C° 0 mm 4 m/s 742 mmHg 96%
    01:00 -6°C° 0.2 mm 5 m/s 742 mmHg 96%
    02:00 -6°C° 0.2 mm 5 m/s 742 mmHg 96%
    03:00 -5°C° 0.2 mm 5 m/s 742 mmHg 96%
    04:00 -6°C° 0.1 mm 5 m/s 742 mmHg 96%
    05:00 -6°C° 0.1 mm 5 m/s 741 mmHg 96%
    06:00 -6°C° 0.1 mm 6 m/s 741 mmHg 96%
    07:00 -6°C° 0 mm 6 m/s 741 mmHg 95%
    08:00 -7°C° 0 mm 5 m/s 741 mmHg 95%
    09:00 -7°C° 0 mm 5 m/s 741 mmHg 95%
    10:00 -7°C° 0.1 mm 5 m/s 741 mmHg 95%
    11:00 -7°C° 0.1 mm 5 m/s 740 mmHg 95%
    12:00 -7°C° 0.1 mm 5 m/s 740 mmHg 96%
    13:00 -7°C° 0.2 mm 4 m/s 740 mmHg 96%
    14:00 -5°C° 0.2 mm 4 m/s 740 mmHg 96%
    15:00 -5°C° 0.2 mm 4 m/s 740 mmHg 96%
    16:00 -5°C° 0.2 mm 4 m/s 740 mmHg 96%
    17:00 -5°C° 0.2 mm 4 m/s 740 mmHg 96%
    18:00 -5°C° 0.2 mm 4 m/s 741 mmHg 96%
    19:00 -5°C° 0.1 mm 4 m/s 740 mmHg 96%
    20:00 -5°C° 0.1 mm 3 m/s 740 mmHg 97%
    21:00 -5°C° 0.1 mm 3 m/s 740 mmHg 97%
    22:00 -5°C° 0 mm 3 m/s 740 mmHg 97%
    23:00 -5°C° 0 mm 3 m/s 740 mmHg 97%

    Mâine, 13 Decembrie, Joi

    Timp Temperatura Precipitaţii Vânt Presiune Umiditate
    00:00 -5°C° 0 mm 3 m/s 741 mmHg 97%
    01:00 -3°C° 0 mm 2 m/s 741 mmHg 97%
    02:00 -3°C° 0 mm 2 m/s 741 mmHg 97%
    03:00 -3°C° 0 mm 2 m/s 741 mmHg 97%
    04:00 -3°C° 0 mm 2 m/s 741 mmHg 97%
    05:00 0°C° 0 mm 1 m/s 741 mmHg 97%
    06:00 0°C° 0 mm 1 m/s 741 mmHg 97%
    07:00 0°C° 0 mm 1 m/s 742 mmHg 97%
    08:00 0°C° 0 mm 1 m/s 742 mmHg 97%
    09:00 0°C° 0 mm 1 m/s 742 mmHg 96%
    10:00 0°C° 0 mm 1 m/s 742 mmHg 97%
    11:00 -2°C° 0 mm 2 m/s 742 mmHg 97%
    12:00 -1°C° 0 mm 2 m/s 743 mmHg 98%
    13:00 -1°C° 0 mm 2 m/s 743 mmHg 98%
    14:00 -2°C° 0 mm 2 m/s 743 mmHg 97%
    15:00 0°C° 0 mm 1 m/s 743 mmHg 97%
    16:00 0°C° 0 mm 1 m/s 743 mmHg 97%
    17:00 -2°C° 0 mm 2 m/s 744 mmHg 96%
    18:00 -2°C° 0 mm 2 m/s 744 mmHg 96%
    19:00 -2°C° 0 mm 2 m/s 744 mmHg 96%
    20:00 -2°C° 0 mm 2 m/s 744 mmHg 96%
    21:00 -2°C° 0 mm 2 m/s 744 mmHg 96%
    22:00 -2°C° 0 mm 2 m/s 745 mmHg 96%
    23:00 -3°C° 0 mm 2 m/s 745 mmHg 96%

    Poimâine, 14 Decembrie, Vineri

    Timp Temperatura Precipitaţii Vânt Presiune Umiditate
    00:00 -3°C° 0 mm 2 m/s 745 mmHg 95%
    01:00 -4°C° 0 mm 3 m/s 745 mmHg 95%
    02:00 -4°C° 0 mm 3 m/s 745 mmHg 95%
    03:00 -4°C° 0 mm 3 m/s 745 mmHg 95%
    04:00 -5°C° 0 mm 3 m/s 745 mmHg 94%
    05:00 -5°C° 0 mm 3 m/s 744 mmHg 94%
    06:00 -5°C° 0 mm 3 m/s 744 mmHg 94%
    07:00 -5°C° 0.3 mm 3 m/s 744 mmHg 94%
    08:00 -5°C° 0.3 mm 4 m/s 744 mmHg 94%
    09:00 -7°C° 0.3 mm 4 m/s 744 mmHg 95%
    10:00 -5°C° 0.3 mm 4 m/s 744 mmHg 94%
    11:00 -5°C° 0.3 mm 4 m/s 744 mmHg 94%
    12:00 -5°C° 0.3 mm 4 m/s 744 mmHg 94%
    13:00 -5°C° 0.4 mm 4 m/s 744 mmHg 94%
    14:00 -5°C° 0.4 mm 4 m/s 744 mmHg 94%
    15:00 -5°C° 0.4 mm 4 m/s 744 mmHg 94%
    16:00 -5°C° 0.4 mm 4 m/s 744 mmHg 94%
    17:00 -6°C° 0.4 mm 5 m/s 744 mmHg 94%
    18:00 -6°C° 0.4 mm 5 m/s 744 mmHg 94%
    19:00 -6°C° 0.3 mm 5 m/s 744 mmHg 94%
    20:00 -6°C° 0.3 mm 5 m/s 744 mmHg 94%
    21:00 -6°C° 0.3 mm 5 m/s 744 mmHg 93%
    22:00 -7°C° 0.2 mm 5 m/s 744 mmHg 93%
    23:00 -7°C° 0.2 mm 5 m/s 744 mmHg 93%

    15 Decembrie, Sâmbătă

    Timp Temperatura Precipitaţii Vânt Presiune Umiditate
    00:00 -7°C° 0.2 mm 5 m/s 745 mmHg 93%
    01:00 -7°C° 0.1 mm 5 m/s 745 mmHg 93%
    02:00 -7°C° 0.1 mm 4 m/s 745 mmHg 93%
    03:00 -7°C° 0.1 mm 4 m/s 745 mmHg 93%
    04:00 -8°C° 0.2 mm 4 m/s 745 mmHg 93%
    05:00 -8°C° 0.2 mm 4 m/s 745 mmHg 93%
    06:00 -8°C° 0.2 mm 4 m/s 746 mmHg 93%
    07:00 -8°C° 0.1 mm 4 m/s 746 mmHg 93%
    08:00 -8°C° 0.1 mm 4 m/s 746 mmHg 93%
    09:00 -8°C° 0.1 mm 4 m/s 747 mmHg 93%
    10:00 -8°C° 0.1 mm 4 m/s 747 mmHg 93%
    11:00 -8°C° 0.1 mm 4 m/s 747 mmHg 93%
    12:00 -7°C° 0.1 mm 4 m/s 747 mmHg 92%
    13:00 -8°C° 0 mm 4 m/s 748 mmHg 93%
    14:00 -8°C° 0 mm 4 m/s 748 mmHg 93%
    15:00 -8°C° 0 mm 4 m/s 748 mmHg 93%
    16:00 -9°C° 0 mm 4 m/s 749 mmHg 93%
    17:00 -9°C° 0 mm 4 m/s 749 mmHg 93%
    18:00 -10°C° 0 mm 4 m/s 749 mmHg 93%
    19:00 -10°C° 0 mm 3 m/s 750 mmHg 92%
    20:00 -12°C° 0 mm 3 m/s 750 mmHg 91%
    21:00 -13°C° 0 mm 3 m/s 750 mmHg 90%
    22:00 -14°C° 0 mm 3 m/s 750 mmHg 90%
    23:00 -15°C° 0 mm 3 m/s 751 mmHg 90%

    16 Decembrie, Duminică

    Timp Temperatura Precipitaţii Vânt Presiune Umiditate
    00:00 -16°C° 0 mm 3 m/s 751 mmHg 90%
    01:00 -16°C° 0 mm 3 m/s 751 mmHg 89%
    02:00 -16°C° 0 mm 3 m/s 751 mmHg 89%
    03:00 -15°C° 0 mm 2 m/s 752 mmHg 88%
    04:00 -15°C° 0 mm 2 m/s 752 mmHg 88%
    05:00 -16°C° 0 mm 2 m/s 752 mmHg 87%
    06:00 -16°C° 0 mm 2 m/s 752 mmHg 86%
    07:00 -16°C° 0 mm 2 m/s 753 mmHg 85%
    08:00 -16°C° 0 mm 2 m/s 753 mmHg 85%
    09:00 -16°C° 0 mm 2 m/s 753 mmHg 85%
    10:00 -15°C° 0 mm 2 m/s 753 mmHg 86%
    11:00 -14°C° 0 mm 2 m/s 753 mmHg 87%
    12:00 -13°C° 0 mm 2 m/s 753 mmHg 88%
    13:00 -13°C° 0 mm 2 m/s 753 mmHg 89%
    14:00 -14°C° 0 mm 2 m/s 753 mmHg 91%
    15:00 -14°C° 0 mm 2 m/s 753 mmHg 92%
    16:00 -14°C° 0 mm 2 m/s 753 mmHg 93%
    17:00 -14°C° 0 mm 2 m/s 754 mmHg 94%
    18:00 -14°C° 0 mm 2 m/s 754 mmHg 95%
    19:00 -14°C° 0 mm 2 m/s 754 mmHg 95%
    20:00 -14°C° 0 mm 2 m/s 754 mmHg 95%
    21:00 -13°C° 0 mm 2 m/s 754 mmHg 95%
    22:00 -14°C° 0 mm 2 m/s 754 mmHg 95%
    23:00 -14°C° 0 mm 2 m/s 754 mmHg 95%

    17 Decembrie, Luni

    Timp Temperatura Precipitaţii Vânt Presiune Umiditate
    00:00 -14°C° 0 mm 2 m/s 754 mmHg 95%
    01:00 -11°C° 0 mm 1 m/s 754 mmHg 95%
    02:00 -11°C° 0 mm 1 m/s 754 mmHg 95%
    03:00 -11°C° 0 mm 1 m/s 754 mmHg 95%
    04:00 -11°C° 0 mm 1 m/s 754 mmHg 95%
    05:00 -11°C° 0 mm 1 m/s 754 mmHg 95%
    06:00 -10°C° 0 mm 1 m/s 754 mmHg 95%
    07:00 -10°C° 0 mm 1 m/s 754 mmHg 95%
    08:00 -10°C° 0 mm 1 m/s 754 mmHg 95%
    09:00 -9°C° 0 mm 1 m/s 754 mmHg 95%
    10:00 -9°C° 0 mm 1 m/s 754 mmHg 95%
    11:00 -8°C° 0 mm 1 m/s 754 mmHg 95%
    12:00 -7°C° 0 mm 1 m/s 754 mmHg 95%
    13:00 -7°C° 0 mm 1 m/s 753 mmHg 95%
    14:00 -7°C° 0 mm 1 m/s 753 mmHg 95%
    15:00 -7°C° 0 mm 1 m/s 753 mmHg 96%
    16:00 -7°C° 0 mm 1 m/s 753 mmHg 96%
    17:00 -7°C° 0 mm 0 m/s 753 mmHg 96%
    18:00 -8°C° 0 mm 0 m/s 753 mmHg 96%
    19:00 -8°C° 0 mm 0 m/s 753 mmHg 96%
    20:00 -7°C° 0 mm 0 m/s 753 mmHg 96%
    21:00 -7°C° 0 mm 0 m/s 753 mmHg 96%
    22:00 -7°C° 0 mm 0 m/s 753 mmHg 96%
    23:00 -7°C° 0 mm 0 m/s 753 mmHg 96%
    Arată mai mult